User: anonymous   Login
Location: Trondheim
(63.4170°N, 10.4170°E)
Time: 10:39:03
(UTC+02:00)
Language:

Iridium 82 - Orbit

View from above orbital plane
View from above orbital plane
View from above satellite
View from above satellite

Ground track
Ground track

The orbit data is extracted from the following two-line orbital elements,

1 25467U 98051A   16181.49378742  .00000015  00000-0 -17337-5 0  9991
2 25467  86.3984 169.5891 0002238  76.1920 283.9524 14.34217968936065
Epoch (UTC): 29 June 2016 11:51:03
Eccentricity: 0.0002238
inclination: 86.3984°
perigee height: 776 km
apogee height: 779 km
right ascension of ascending node: 169.5891°
argument of perigee: 76.1920°
revolutions per day: 14.34217968
mean anomaly at epoch: 283.9524°
orbit number at epoch: 93606

The dashed part of the orbit path shows where the satellite is in the earth's shadow,  

DLR